GW3856 Weather Reports


time (UTC)temp
F
wind
direction
speed
knots
gust
knots
rain 1hr
in
rain 24hr
in
rain mn
in
humidity
%
barometer
mb
20260506183101 46 5 4.3 8.7 0.12 0.82 0.67 91 1005.2
20260506182541 46 36 3.5 7.8 0.12 0.82 0.67 91 1005.3
20260506182042 46 30 3.5 10.4 0.13 0.82 0.67 91 1005.4
20260506181548 46 20 3.5 10.4 0.14 0.82 0.67 91 1005.5
20260506181040 46 315 4.3 10.4 0.13 0.81 0.66 91 1005.6
20260506180540 46 22 3.5 7.8 0.14 0.81 0.66 91 1005.8
20260506180054 46 343 1.7 4.3 0.15 0.80 0.65 91 1006.3
20260506175540 46 344 0.9 5.2 0.14 0.79 0.64 91 1006.5
20260506175043 46 5 2.6 7.0 0.15 0.77 0.62 91 1006.1
20260506174604 46 323 1.7 7.0 0.15 0.75 0.60 91 1005.9
20260506174040 46 33 0.0 4.3 0.14 0.73 0.58 91 1005.9
20260506173539 46 355 0.9 4.3 0.13 0.72 0.57 91 1006.1
20260506173056 46 328 0.0 3.5 0.12 0.70 0.55 91 1006.0
20260506172539 46 328 0.9 3.5 0.12 0.69 0.54 91 1005.8
20260506172040 46 328 1.7 3.5 0.13 0.69 0.54 91 1006.0
20260506171547 46 329 0.9 3.5 0.13 0.68 0.52 91 1006.1
20260506171040 46 329 0.9 3.5 0.14 0.68 0.52 91 1006.1
20260506170539 46 329 1.7 4.3 0.13 0.67 0.52 91 1005.9
20260506170100 46 329 1.7 7.0 0.12 0.65 0.50 91 1005.9
20260506165540 46 331 1.7 7.8 0.12 0.65 0.50 91 1005.7
20260506165040 46 329 3.5 7.8 0.10 0.62 0.47 91 1005.9
20260506164553 46 309 4.3 7.8 0.09 0.60 0.45 91 1006.1
20260506164038 46 10 2.6 7.0 0.08 0.58 0.44 91 1005.8
20260506163538 46 327 2.6 10.4 0.08 0.58 0.43 91 1005.8
20260506163104 46 293 3.5 10.4 0.08 0.58 0.43 91 1005.9
20260506162539 46 301 4.3 8.7 0.08 0.57 0.42 91 1006.1
20260506162040 46 305 4.3 8.7 0.07 0.56 0.41 91 1006.1
20260506161549 47 297 2.6 7.0 0.07 0.55 0.40 91 1006.2
20260506161044 47 317 2.6 7.0 0.06 0.54 0.39 91 1006.0
20260506160539 47 314 1.7 7.0 0.06 0.54 0.39 91 1005.9
20260506160051 47 309 2.6 7.0 0.06 0.52 0.38 91 1005.9
20260506155540 47 319 1.7 7.0 0.05 0.52 0.37 91 1006.0
20260506155040 47 336 0.9 7.0 0.06 0.52 0.37 91 1006.1
20260506154553 47 302 2.6 7.0 0.05 0.51 0.36 91 1006.2
20260506154043 48 336 1.7 4.3 0.05 0.51 0.36 91 1006.1
20260506153541 47 306 1.7 4.3 0.05 0.50 0.35 91 1006.1
20260506153043 48 306 1.7 4.3 0.05 0.50 0.35 91 1006.1
20260506152538 48 298 1.7 4.3 0.04 0.49 0.34 91 1006.2
20260506152040 48 298 1.7 4.3 0.05 0.49 0.34 91 1006.4
20260506151551 48 333 2.6 4.3 0.04 0.48 0.33 91 1006.4
20260506151038 48 337 0.9 4.3 0.04 0.48 0.33 91 1006.5
20260506150537 48 342 1.7 4.3 0.04 0.48 0.33 91 1006.5
20260506150050 48 325 1.7 4.3 0.04 0.47 0.32 91 1006.6
20260506145535 48 306 1.7 4.3 0.05 0.47 0.32 91 1006.8
20260506145037 49 10 1.7 4.3 0.04 0.46 0.31 91 1006.8
20260506144548 49 341 0.9 3.5 0.05 0.46 0.31 91 1006.8
20260506144036 49 340 0.9 3.5 0.05 0.46 0.31 91 1006.7
20260506143537 49 340 1.7 3.5 0.04 0.45 0.30 91 1006.6
20260506143046 49 5 0.9 4.3 0.05 0.45 0.30 91 1006.7
20260506142538 48 5 1.7 4.3 0.05 0.45 0.30 91 1006.7
20260506142037 49 352 1.7 4.3 0.05 0.44 0.29 91 1006.8
20260506141550 49 27 0.0 3.5 0.06 0.44 0.29 91 1006.6
20260506141039 49 28 1.7 4.3 0.06 0.44 0.29 91 1006.6
20260506140539 49 0 0.9 4.3 0.07 0.44 0.29 91 1006.7
20260506140042 49 0 0.9 4.3 0.07 0.43 0.28 91 1006.8
20260506135538 49 17 0.0 3.5 0.07 0.42 0.27 91 1006.9
20260506135039 49 0 0.9 4.3 0.07 0.42 0.27 91 1007.0
20260506134540 49 0 0.9 4.3 0.07 0.41 0.26 91 1007.0
20260506134038 49 24 1.7 4.3 0.07 0.41 0.26 91 1006.9
20260506133538 49 26 0.0 3.5 0.07 0.40 0.25 91 1006.8
20260506133050 49 0 0.9 3.5 0.07 0.40 0.25 91 1006.9
20260506132541 49 53 0.9 2.6 0.06 0.39 0.24 91 1007.0
20260506132038 49 313 0.9 1.7 0.07 0.39 0.24 91 1007.1
20260506131543 49 0 0.0 3.5 0.06 0.38 0.23 91 1007.0
20260506131039 49 0 0.0 3.5 0.06 0.38 0.23 91 1007.1
20260506130538 49 313 1.7 3.5 0.05 0.37 0.22 91 1007.3
20260506130043 49 355 0.0 0.0 0.04 0.36 0.21 91 1007.4
20260506125536 49 0 0.0 0.9 0.03 0.35 0.20 91 1007.3
20260506125038 49 0 0.0 0.9 0.03 0.34 0.19 91 1007.4
20260506124545 49 0 0.0 1.7 0.03 0.34 0.19 91 1007.4
20260506124038 49 0 0.0 2.6 0.03 0.34 0.19 91 1007.4
20260506123538 49 0 0.0 2.6 0.02 0.33 0.18 91 1007.5
20260506123040 49 0 0.0 2.6 0.02 0.33 0.18 91 1007.6
20260506122538 49 0 0.0 4.3 0.02 0.33 0.18 91 1007.5
20260506122038 49 355 0.9 7.8 0.01 0.32 0.17 91 1007.3
20260506121557 49 355 1.7 7.8 0.01 0.32 0.17 91 1007.5
20260506121038 49 314 3.5 7.8 0.01 0.32 0.17 91 1007.8
20260506120538 50 313 0.0 4.3 0.01 0.32 0.17 91 1007.7
20260506120049 50 309 1.7 6.1 0.01 0.32 0.17 91 1007.8
20260506115542 50 0 1.7 6.1 0.01 0.32 0.17 91 1007.7
20260506115039 50 48 0.9 4.3 0.00 0.31 0.16 91 1007.2
20260506114552 50 0 0.9 4.3 0.00 0.31 0.16 91 1007.4
20260506114040 50 351 0.0 3.5 0.00 0.31 0.16 91 1007.3
20260506113539 50 0 0.0 3.5 0.00 0.31 0.16 91 1007.5
20260506113050 50 0 1.7 3.5 0.00 0.31 0.16 91 1007.3
20260506112541 50 0 0.0 3.5 0.00 0.31 0.16 91 1007.4
20260506112039 50 12 0.0 2.6 0.01 0.31 0.16 91 1007.3
20260506111545 50 0 0.0 2.6 0.01 0.31 0.16 91 1007.4
20260506111040 50 0 0.0 6.1 0.01 0.31 0.16 91 1007.3
20260506110540 50 0 1.7 6.1 0.01 0.31 0.16 91 1007.3
20260506110047 50 0 0.0 4.3 0.01 0.31 0.16 91 1007.3
20260506105540 50 0 0.9 4.3 0.01 0.31 0.16 91 1007.2
20260506105039 50 38 0.0 1.7 0.01 0.31 0.16 91 1007.2
20260506104544 50 0 0.0 3.5 0.01 0.31 0.16 91 1007.4
20260506104039 50 0 0.0 4.3 0.01 0.31 0.16 91 1007.3
20260506103540 50 0 0.9 4.3 0.01 0.31 0.16 91 1007.2
20260506103049 50 23 0.9 4.3 0.01 0.31 0.16 91 1007.4
20260506102539 50 24 1.7 4.3 0.01 0.31 0.16 91 1007.1
20260506102041 51 355 0.9 4.3 0.00 0.30 0.15 91 1007.5
20260506101605 51 0 0.9 3.5 0.00 0.30 0.15 91 1007.6
20260506101039 51 0 0.9 3.5 0.00 0.30 0.15 91 1007.5
20260506100539 51 0 0.0 3.5 0.00 0.30 0.15 91 1007.4
20260506100047 51 0 0.0 4.3 0.00 0.30 0.15 91 1007.4
20260506095539 51 0 0.9 6.1 0.00 0.30 0.15 91 1007.3
20260506095040 51 0 0.9 6.1 0.00 0.30 0.15 91 1007.8
20260506094543 51 63 0.9 7.8 0.00 0.30 0.15 91 1007.5
20260506094039 51 0 0.9 7.8 0.00 0.30 0.15 91 1007.5
20260506093542 51 33 1.7 5.2 0.00 0.30 0.15 91 1007.4
20260506093055 52 59 0.0 7.0 0.00 0.30 0.15 91 1007.9
20260506092540 52 5 0.9 7.0 0.00 0.30 0.15 91 1007.9
20260506092039 52 0 0.0 4.3 0.00 0.30 0.15 91 1007.7
20260506091549 52 0 0.9 7.0 0.00 0.30 0.15 91 1007.8
20260506091039 53 0 0.0 7.0 0.00 0.30 0.15 91 1007.5
20260506090540 53 38 0.0 2.6 0.00 0.30 0.15 91 1007.5
20260506090100 53 0 0.0 1.7 0.00 0.30 0.15 91 1007.6
20260506085539 53 0 0.0 1.7 0.00 0.30 0.15 91 1007.7
20260506085040 53 0 0.9 1.7 0.00 0.30 0.15 91 1008.0
20260506084551 53 0 0.0 0.0 0.00 0.30 0.15 91 1007.6
20260506084039 53 0 0.0 1.7 0.00 0.30 0.15 91 1007.7
20260506083540 53 0 0.0 2.6 0.00 0.30 0.15 91 1007.8
20260506083045 53 0 0.0 2.6 0.00 0.30 0.15 91 1007.9
20260506082540 53 0 0.0 1.7 0.00 0.30 0.15 91 1008.0
20260506082040 53 0 0.0 5.2 0.00 0.30 0.15 91 1008.2
20260506081544 53 0 0.0 5.2 0.00 0.30 0.15 91 1008.4
20260506081043 53 271 0.0 3.5 0.00 0.30 0.15 91 1008.2
20260506080540 53 0 0.0 0.0 0.00 0.30 0.15 90 1007.4
20260506073047 53 0 0.0 0.0 0.03 0.30 0.15 91 1007.3
20260506072539 53 0 0.0 0.0 0.03 0.30 0.15 90 1007.5
20260506072041 53 0 0.0 0.0 0.03 0.30 0.15 90 1007.4
20260506071544 53 0 0.0 1.7 0.03 0.30 0.15 90 1007.3
20260506071044 53 0 0.0 1.7 0.03 0.30 0.15 90 1007.5
20260506070539 53 0 0.0 1.7 0.03 0.30 0.15 90 1007.5
20260506062039 53 0 0.0 0.0 0.02 0.27 0.12 90 1007.7
20260506061550 53 0 0.0 0.0 0.02 0.27 0.12 90 1007.7
20260506061039 53 0 0.0 1.7 0.02 0.27 0.12 90 1007.7
20260506060539 53 0 0.0 3.5 0.03 0.27 0.12 90 1007.6
20260506051040 53 0 0.0 0.0 0.05 0.25 0.10 90 1008.1
20260506050539 53 0 0.0 0.0 0.05 0.24 0.09 90 1007.8
20260506050112 53 0 0.0 0.0 0.09 0.24 0.09 90 1008.0
20260506045039 53 0 0.0 0.0 0.09 0.23 0.08 90 1007.9
20260506044548 53 0 0.0 3.5 0.08 0.21 0.06 90 1008.1
20260506044039 53 0 0.0 4.3 0.09 0.20 0.05 90 1007.9
20260506043539 53 352 2.6 4.3 0.09 0.20 0.05 90 1007.5
20260506043042 53 346 1.7 3.5 0.10 0.20 0.05 89 1007.8
20260506042540 53 346 1.7 5.2 0.11 0.20 0.05 89 1007.8
20260506042042 54 346 1.7 10.4 0.12 0.20 0.05 89 1007.9
20260506041557 54 336 2.6 11.3 0.13 0.20 0.05 89 1008.1
20260506041041 54 328 5.2 11.3 0.13 0.20 0.05 89 1008.0
20260506040539 54 338 3.5 9.6 0.11 0.18 0.03 89 1008.2
20260506040049 54 300 4.3 9.6 0.08 0.15 0.00 89 1008.0
20260506035541 55 317 4.3 13.0 0.07 0.14 0.14 88 1007.8
20260506035038 55 298 4.3 13.0 0.07 0.14 0.14 88 1007.6
20260506034552 55 304 7.0 13.0 0.06 0.13 0.13 88 1007.6
20260506034039 56 282 6.1 13.0 0.04 0.11 0.11 87 1007.3
20260506033539 57 295 4.3 11.3 0.03 0.10 0.10 87 1007.1
20260506033047 57 232 3.5 7.8 0.03 0.10 0.10 86 1007.0
20260506032543 58 209 0.9 4.3 0.02 0.09 0.09 84 1006.5
20260506032039 57 206 1.7 4.3 0.01 0.08 0.08 84 1006.5
20260506031549 57 141 1.7 4.3 0.00 0.07 0.07 84 1006.4
20260506031040 57 138 1.7 4.3 0.00 0.07 0.07 84 1006.2
20260506030545 57 138 1.7 5.2 0.00 0.07 0.07 84 1006.3
20260506030048 58 138 2.6 5.2 0.00 0.07 0.07 83 1006.3
20260506025539 58 180 0.9 5.2 0.00 0.07 0.07 83 1006.4
20260506025039 58 174 2.6 5.2 0.00 0.07 0.07 81 1006.4
20260506024549 59 146 1.7 4.3 0.00 0.07 0.07 81 1006.2
20260506024040 60 150 1.7 3.5 0.00 0.07 0.07 78 1006.2
20260506023540 60 238 0.9 3.5 0.00 0.07 0.07 77 1006.2
20260506023058 60 239 0.9 3.5 0.00 0.07 0.07 75 1006.3
20260506022539 60 240 0.9 3.5 0.00 0.07 0.07 75 1006.1
20260506022041 60 246 0.9 4.3 0.00 0.07 0.07 75 1006.0
20260506021545 60 246 0.9 7.0 0.00 0.07 0.07 75 1006.4
20260506021038 60 237 1.7 7.0 0.00 0.07 0.07 76 1006.4
20260506020539 59 250 1.7 5.2 0.00 0.07 0.07 76 1006.4
20260506020054 59 267 1.7 5.2 0.00 0.07 0.07 76 1006.4
20260506015540 59 0 0.9 3.5 0.00 0.07 0.07 76 1006.2
20260506015040 59 200 0.0 2.6 0.00 0.07 0.07 77 1006.0
20260506014549 59 0 0.9 2.6 0.00 0.07 0.07 77 1005.7
20260506014038 60 200 0.9 3.5 0.00 0.07 0.07 77 1005.6
20260506013538 60 180 1.7 3.5 0.00 0.07 0.07 77 1005.5
20260506013054 60 196 0.9 4.3 0.00 0.07 0.07 77 1005.4
20260506012541 60 215 1.7 6.1 0.00 0.07 0.07 76 1005.6
20260506012041 60 169 1.7 6.1 0.00 0.07 0.07 76 1005.6
20260506011548 60 134 1.7 6.1 0.00 0.07 0.07 75 1005.4
20260506011039 61 172 1.7 6.1 0.00 0.07 0.07 75 1005.4
20260506010540 61 142 1.7 5.2 0.00 0.07 0.07 74 1005.4
20260506010051 61 156 2.6 5.2 0.00 0.07 0.07 73 1005.5
20260506005540 62 161 2.6 5.2 0.00 0.07 0.07 72 1005.5
20260506005039 62 196 1.7 5.2 0.00 0.07 0.07 71 1005.4
20260506004557 62 155 1.7 6.1 0.00 0.07 0.07 70 1005.2
20260506004039 63 203 1.7 8.7 0.00 0.07 0.07 69 1005.4
20260506003538 63 194 1.7 8.7 0.00 0.07 0.07 69 1005.3
20260506003051 63 274 1.7 7.8 0.00 0.07 0.07 68 1005.3
20260506002539 63 234 3.5 11.3 0.00 0.07 0.07 67 1005.2
20260506002040 63 215 4.3 11.3 0.00 0.07 0.07 68 1005.2
20260506001554 63 236 4.3 9.6 0.00 0.07 0.07 68 1005.2
20260506001038 63 240 3.5 8.7 0.00 0.07 0.07 69 1005.1
20260506000541 63 162 2.6 8.7 0.00 0.07 0.07 70 1005.1
20260506000057 63 221 1.7 10.4 0.00 0.07 0.07 69 1005.2
20260505235539 63 168 2.6 10.4 0.00 0.07 0.07 68 1005.2
20260505235040 63 197 2.6 7.8 0.00 0.07 0.07 67 1005.2
20260505234547 63 209 2.6 7.8 0.00 0.07 0.07 67 1005.1
20260505234039 63 229 2.6 7.0 0.00 0.07 0.07 67 1005.1
20260505233541 63 194 2.6 11.3 0.00 0.07 0.07 67 1005.0
20260505233056 63 266 4.3 11.3 0.00 0.07 0.07 68 1004.8
20260505232539 64 272 1.7 7.8 0.00 0.07 0.07 67 1004.7
20260505232039 64 238 2.6 7.8 0.00 0.07 0.07 67 1004.5
20260505231551 64 212 1.7 9.6 0.00 0.07 0.07 67 1004.5
20260505231040 64 248 1.7 9.6 0.00 0.07 0.07 66 1004.5
20260505230540 64 213 3.5 11.3 0.00 0.07 0.07 66 1004.4
20260505230112 64 269 4.3 11.3 0.00 0.07 0.07 68 1004.4
20260505225538 64 240 3.5 13.9 0.00 0.07 0.07 67 1004.5
20260505225039 64 284 5.2 13.9 0.00 0.07 0.07 68 1004.5
20260505224549 64 280 5.2 12.2 0.00 0.07 0.07 68 1004.6
20260505224039 64 262 4.3 14.8 0.00 0.07 0.07 69 1004.5
20260505223539 64 289 4.3 21.7 0.00 0.07 0.07 69 1004.5
20260505223052 64 240 7.0 21.7 0.00 0.07 0.07 69 1004.3
20260505222540 63 237 1.7 6.1 0.00 0.07 0.07 72 1004.1
20260505222043 63 213 0.9 7.8 0.00 0.07 0.07 75 1004.3
20260505221555 63 258 1.7 7.8 0.00 0.07 0.07 74 1004.7
20260505221038 63 232 1.7 7.0 0.00 0.07 0.07 74 1004.6
20260505220539 64 0 1.7 6.1 0.00 0.07 0.07 75 1004.6
20260505220055 64 261 2.6 8.7 0.00 0.07 0.07 74 1004.7
20260505215539 64 314 3.5 8.7 0.00 0.07 0.07 73 1004.4
20260505215039 65 323 3.5 8.7 0.00 0.07 0.07 70 1004.5
20260505214545 64 250 2.6 7.0 0.00 0.07 0.07 70 1004.1
20260505214038 64 239 1.7 5.2 0.00 0.07 0.07 71 1003.8
20260505213539 64 265 0.9 5.2 0.00 0.07 0.07 72 1003.7
20260505213044 64 276 1.7 7.0 0.00 0.07 0.07 72 1003.9
20260505212540 64 278 2.6 10.4 0.00 0.07 0.07 71 1003.8
20260505212039 64 239 2.6 10.4 0.00 0.07 0.07 74 1003.8
20260505211559 64 254 3.5 9.6 0.00 0.07 0.07 73 1003.8
20260505211040 64 158 4.3 13.9 0.00 0.07 0.07 73 1004.0
20260505210538 63 257 5.2 13.9 0.00 0.07 0.07 75 1003.8
20260505210056 63 267 5.2 13.0 0.02 0.07 0.07 76 1004.1
20260505205540 62 259 4.3 13.0 0.04 0.07 0.07 78 1004.2
20260505205039 61 227 7.0 13.0 0.06 0.07 0.07 79 1004.0
20260505204549 61 269 4.3 13.9 0.06 0.07 0.07 81 1003.9
20260505204039 60 225 4.3 13.9 0.06 0.07 0.07 82 1003.6
20260505203539 60 237 4.3 13.0 0.06 0.07 0.07 82 1003.5
20260505203048 60 224 4.3 13.9 0.06 0.07 0.07 83 1003.4
20260505202540 60 214 4.3 13.9 0.07 0.07 0.07 84 1003.5
20260505202039 60 246 6.1 17.4 0.07 0.07 0.07 83 1003.5
20260505201551 60 274 7.0 17.4 0.07 0.07 0.07 83 1003.4
20260505201042 60 263 5.2 20.0 0.07 0.07 0.07 83 1003.2
20260505200539 61 239 7.8 24.3 0.07 0.07 0.07 80 1003.3
20260505200107 63 256 10.4 26.1 0.05 0.05 0.05 77 1003.3
20260505195544 66 231 15.6 26.1 0.03 0.03 0.03 70 1003.3
20260505195042 68 234 9.6 23.5 0.01 0.01 0.01 57 1002.4
20260505194549 68 258 6.1 16.5 0.01 0.01 0.01 57 1001.6
20260505194040 68 243 6.1 20.0 0.01 0.01 0.01 58 1001.3
20260505193539 69 271 11.3 23.5 0.01 0.01 0.01 56 1001.1
20260505193101 71 234 7.8 23.5 0.01 0.01 0.01 56 1001.4
20260505192541 73 290 7.8 21.7 0.00 0.00 0.00 47 1001.3
20260505192039 74 234 7.8 18.2 0.00 0.00 0.00 43 1001.0
20260505191547 76 209 7.0 20.9 0.00 0.00 0.00 39 1000.8
20260505191042 77 304 7.8 20.9 0.00 0.00 0.00 36 1000.7
20260505190543 77 235 9.6 20.0 0.00 0.00 0.00 35 1000.6
20260505190051 77 198 7.8 19.1 0.00 0.00 0.00 37 1000.7
20260505185539 77 254 8.7 19.1 0.00 0.00 0.00 36 1000.7
20260505185039 77 198 6.1 14.8 0.00 0.00 0.00 36 1000.6
20260505184548 78 233 8.7 25.2 0.00 0.00 0.00 36 1000.8
20260505184040 78 212 7.0 26.1 0.00 0.00 0.00 36 1000.7
20260505183541 77 302 7.8 26.1 0.00 0.00 0.00 36 1000.6